STARLINK-35901 (67043 NORAD) Tracking and Keplerian Element Data

This shows tracking and keplerian element data for the satellite.

Feedback or suggestion? Click here.




ElementValue
Catalog67043
NameSTARLINK-35901
Epoch Orbit151
Epoch Day354.25003472
Epoch Year2025
RAAN136.2295
Inclination43.0001
Eccentricity0.0001762
Argument of Perigee259.4856
Mean Anonmoly352.1975
Mean Motion15.89015614
Decay Rate-0.0139674
L11 67043U 25294P 25354.25003472 -.01396740 00000+0 -53963-2 0 9993
L22 67043 43.0001 136.2295 0001762 259.4856 352.1975 15.89015614 1512



Live tracking and technical data element details for STARLINK-35901 (NORAD 67043). STARLINK-35901 can be tracked NOW for your location showing map with azimuth and elevation plus other details from your city location.







IsCatalogInMostPopularTable: catalog: 67043, numindb: 81
Update: records affected: 1



GetName: 67043 STARLINK-35901

Hit Count: updated at: Thu, 21 May 2026 12:01:10 GMT